Wheaton NDB, MN

6:44 AM CDT on May 29, 2017 (GMT -0500)
Wheaton Municipal

Weather History for KETH - November, 2011

Change the Weather History Date:

Wednesday, November 16, 2011

  Actual Average Record
Temperature  
Mean Temperature 22 °F -  
Max Temperature 26 °F 40 °F 75 °F (1953)
Min Temperature 15 °F 22 °F -7 °F (1959)
Degree Days  
Heating Degree Days 44    
Moisture  
Dew Point 13 °F    
Average Humidity 67    
Maximum Humidity 80    
Minimum Humidity 51    
Precipitation  
Precipitation 0.00 in - - ()
Sea Level Pressure  
Sea Level Pressure 30.12 in    
Wind  
Wind Speed 12 mph (West)    
Max Wind Speed 25 mph    
Max Gust Speed 32 mph    
Visibility 10 miles    
Events      
Averages and records for this station are not official NWS values.
T = Trace of Precipitation, MM = Missing Value Source: NWS Daily Summary

Daily Weather History Graph

Daily Weather History Graph

Search for Another Location

Airport or City:

Trip Planner

Search our weather history database for the weather conditions in past years. The results will help you decide how hot, cold, wet, or windy it might be!

Date:

Astronomy

Nov. 16, 2011 Rise Set
Actual Time 7:27 AM CST 4:54 PM CST
Civil Twilight 6:54 AM CST 5:26 PM CST
Nautical Twilight 6:18 AM CST 6:02 PM CST
Astronomical Twilight 5:43 AM CST 6:37 PM CST
Moon 10:12 PM CST (11/16) 12:02 PM CST (11/16)
Length of Visible Light 10h 31m
Length of Day
9h 27m
Waning Gibbous, 70% of the Moon is Illuminated
Nov 16
Waning Gibbous
Nov 18
Last Quarter
Nov 25
New
Dec 2
First Quarter
Dec 10
Full

Hourly Weather History & Observations

Time (CST) Temp. Windchill Dew Point Humidity Pressure Visibility Wind Dir Wind Speed Gust Speed Precip Events Conditions
12:15 AM 26.6 °F 14.7 °F 17.6 °F 69% 30.00 in 10.0 mi West 15.0 mph 21.9 mph N/A   Clear
12:36 AM 24.8 °F 14.6 °F 17.6 °F 74% 30.00 in 10.0 mi West 10.4 mph - N/A   Clear
12:55 AM 24.8 °F 15.3 °F 17.6 °F 74% 30.01 in 10.0 mi West 9.2 mph - N/A   Clear
1:16 AM 24.8 °F 16.9 °F 17.6 °F 74% 30.02 in 10.0 mi West 6.9 mph - N/A   Clear
1:35 AM 23.0 °F 13.1 °F 15.8 °F 74% 30.02 in 10.0 mi West 9.2 mph - N/A   Clear
2:15 AM 21.2 °F 12.6 °F 15.8 °F 80% 30.03 in 10.0 mi WSW 6.9 mph - N/A   Clear
2:35 AM 19.4 °F 11.5 °F 14.0 °F 80% 30.04 in 10.0 mi WSW 5.8 mph - N/A   Clear
2:55 AM 19.4 °F 11.5 °F 12.2 °F 74% 30.04 in 10.0 mi SW 5.8 mph - N/A   Clear
3:15 AM 19.4 °F 10.4 °F 12.2 °F 74% 30.04 in 10.0 mi SW 6.9 mph - N/A   Clear
3:35 AM 19.4 °F 12.8 °F 12.2 °F 74% 30.04 in 10.0 mi WSW 4.6 mph - N/A   Clear
3:55 AM 19.4 °F 12.8 °F 14.0 °F 80% 30.04 in 10.0 mi SW 4.6 mph - N/A   Clear
4:15 AM 19.4 °F 9.5 °F 14.0 °F 80% 30.04 in 10.0 mi SW 8.1 mph - N/A   Clear
4:35 AM 19.4 °F 9.5 °F 14.0 °F 80% 30.04 in 10.0 mi SSW 8.1 mph - N/A   Clear
4:55 AM 19.4 °F 8.6 °F 14.0 °F 80% 30.04 in 10.0 mi SW 9.2 mph - N/A   Clear
5:15 AM 19.4 °F 12.8 °F 14.0 °F 80% 30.05 in 10.0 mi WSW 4.6 mph - N/A   Clear
5:35 AM 21.2 °F 13.6 °F 15.8 °F 80% 30.05 in 10.0 mi WSW 5.8 mph - N/A   Scattered Clouds
6:15 AM 21.2 °F 13.6 °F 15.8 °F 80% 30.06 in 10.0 mi West 5.8 mph - N/A   Mostly Cloudy
6:36 AM 23.0 °F 11.7 °F 17.6 °F 80% 30.06 in 10.0 mi West 11.5 mph - N/A   Mostly Cloudy
6:55 AM 23.0 °F 12.4 °F 15.8 °F 74% 30.06 in 10.0 mi West 10.4 mph 16.1 mph N/A   Mostly Cloudy
7:15 AM 21.2 °F 10.9 °F 15.8 °F 80% 30.07 in 10.0 mi West 9.2 mph - N/A   Scattered Clouds
7:36 AM 21.2 °F 13.6 °F 15.8 °F 80% 30.08 in 10.0 mi West 5.8 mph - N/A   Clear
7:55 AM 21.2 °F 12.6 °F 15.8 °F 80% 30.09 in 10.0 mi West 6.9 mph - N/A   Clear
8:21 AM 23.0 °F 14.7 °F 17.6 °F 80% 30.10 in 10.0 mi WSW 6.9 mph - N/A   Clear
8:41 AM 23.0 °F 13.1 °F 17.6 °F 80% 30.11 in 10.0 mi West 9.2 mph - N/A   Scattered Clouds
8:55 AM 24.8 °F 14.0 °F 17.6 °F 74% 30.11 in 10.0 mi West 11.5 mph 17.3 mph N/A   Scattered Clouds
9:15 AM 24.8 °F 14.0 °F 17.6 °F 74% 30.12 in 10.0 mi West 11.5 mph 18.4 mph N/A   Scattered Clouds
9:36 AM 24.8 °F 11.9 °F 17.6 °F 74% 30.12 in 10.0 mi WNW 16.1 mph - N/A   Mostly Cloudy
9:55 AM 24.8 °F 9.6 °F 15.8 °F 69% 30.13 in 10.0 mi WNW 23.0 mph 28.8 mph N/A   Overcast
10:15 AM 24.8 °F 11.1 °F 15.8 °F 69% 30.14 in 10.0 mi West 18.4 mph 26.5 mph N/A   Mostly Cloudy
10:36 AM 26.6 °F 12.7 °F 15.8 °F 64% 30.14 in 10.0 mi WNW 20.7 mph 28.8 mph N/A   Mostly Cloudy
10:55 AM 26.6 °F 12.0 °F 12.2 °F 55% 30.15 in 10.0 mi West 23.0 mph 28.8 mph N/A   Scattered Clouds
11:16 AM 24.8 °F 10.7 °F 12.2 °F 59% 30.15 in 10.0 mi West 19.6 mph 31.1 mph N/A   Mostly Cloudy
11:35 AM 26.6 °F 12.7 °F 12.2 °F 55% 30.14 in 10.0 mi WNW 20.7 mph 31.1 mph N/A   Overcast
11:55 AM 26.6 °F 12.4 °F 12.2 °F 55% 30.14 in 10.0 mi West 21.9 mph 29.9 mph N/A   Mostly Cloudy
12:16 PM 26.6 °F 12.7 °F 12.2 °F 55% 30.14 in 10.0 mi WNW 20.7 mph 28.8 mph N/A   Mostly Cloudy
12:35 PM 26.6 °F 12.7 °F 12.2 °F 55% 30.14 in 10.0 mi WNW 20.7 mph 27.6 mph N/A   Overcast
12:56 PM 26.6 °F 11.4 °F 12.2 °F 55% 30.14 in 10.0 mi WNW 25.3 mph 31.1 mph N/A   Overcast
1:16 PM 26.6 °F 12.7 °F 12.2 °F 55% 30.14 in 10.0 mi West 20.7 mph 28.8 mph N/A   Mostly Cloudy
1:35 PM 26.6 °F 13.1 °F 10.4 °F 51% 30.15 in 10.0 mi West 19.6 mph 27.6 mph N/A   Mostly Cloudy
1:58 PM 24.8 °F 10.0 °F 10.4 °F 54% 30.15 in 10.0 mi West 21.9 mph 32.2 mph N/A   Mostly Cloudy
2:15 PM 26.6 °F 13.4 °F 10.4 °F 51% 30.15 in 10.0 mi West 18.4 mph 31.1 mph N/A   Scattered Clouds
2:35 PM 26.6 °F 12.0 °F 10.4 °F 51% 30.15 in 10.0 mi West 23.0 mph 27.6 mph N/A   Mostly Cloudy
2:56 PM 24.8 °F 10.7 °F 10.4 °F 54% 30.16 in 10.0 mi WNW 19.6 mph 26.5 mph N/A   Overcast
3:15 PM 26.6 °F 12.7 °F 10.4 °F 51% 30.16 in 10.0 mi WNW 20.7 mph 26.5 mph N/A   Overcast
3:36 PM 26.6 °F 11.4 °F 10.4 °F 51% 30.17 in 10.0 mi West 25.3 mph 28.8 mph N/A   Overcast
3:56 PM 24.8 °F 10.0 °F 10.4 °F 54% 30.17 in 10.0 mi West 21.9 mph 31.1 mph N/A   Overcast
4:15 PM 24.8 °F 10.7 °F 10.4 °F 54% 30.18 in 10.0 mi West 19.6 mph 27.6 mph N/A   Mostly Cloudy
4:36 PM 24.8 °F 11.5 °F 10.4 °F 54% 30.18 in 10.0 mi WNW 17.3 mph 26.5 mph N/A   Mostly Cloudy
4:55 PM 24.8 °F 11.5 °F 10.4 °F 54% 30.19 in 10.0 mi West 17.3 mph - N/A   Mostly Cloudy
5:15 PM 23.0 °F 9.6 °F 10.4 °F 59% 30.20 in 10.0 mi West 16.1 mph 21.9 mph N/A   Overcast
5:36 PM 23.0 °F 10.1 °F 10.4 °F 59% 30.20 in 10.0 mi West 15.0 mph 19.6 mph N/A   Mostly Cloudy
5:55 PM 21.2 °F 8.9 °F 10.4 °F 63% 30.21 in 10.0 mi West 12.7 mph - N/A   Mostly Cloudy
6:15 PM 23.0 °F 11.7 °F 12.2 °F 63% 30.21 in 10.0 mi West 11.5 mph - N/A   Overcast
6:35 PM 21.2 °F 7.3 °F 10.4 °F 63% 30.21 in 10.0 mi West 16.1 mph - N/A   Mostly Cloudy
6:55 PM 21.2 °F 9.5 °F 10.4 °F 63% 30.21 in 10.0 mi West 11.5 mph - N/A   Clear
7:15 PM 19.4 °F 9.5 °F 10.4 °F 68% 30.22 in 10.0 mi West 8.1 mph - N/A   Clear
7:35 PM 19.4 °F 10.4 °F 10.4 °F 68% 30.22 in 10.0 mi West 6.9 mph - N/A   Scattered Clouds
7:55 PM 17.6 °F 8.2 °F 10.4 °F 73% 30.22 in 10.0 mi WSW 6.9 mph - N/A   Clear
8:16 PM 17.6 °F 8.2 °F 10.4 °F 73% 30.21 in 10.0 mi West 6.9 mph - N/A   Clear
8:36 PM 15.8 °F 8.6 °F 8.6 °F 73% 30.21 in 10.0 mi West 4.6 mph - N/A   Clear
9:36 PM 14.0 °F 5.1 °F 10.4 °F 86% 30.22 in 10.0 mi WNW 5.8 mph - N/A   Clear
9:55 PM 14.0 °F 5.1 °F 10.4 °F 86% 30.22 in 10.0 mi WNW 5.8 mph - N/A   Clear
10:16 PM 14.0 °F 5.1 °F 10.4 °F 86% 30.22 in 10.0 mi WNW 5.8 mph - N/A   Clear
10:36 PM 14.0 °F 3.9 °F 10.4 °F 86% 30.22 in 10.0 mi WNW 6.9 mph - N/A   Clear
10:55 PM 14.0 °F 3.9 °F 10.4 °F 86% 30.22 in 10.0 mi WNW 6.9 mph - N/A   Clear
11:15 PM 14.0 °F 3.9 °F 10.4 °F 86% 30.22 in 10.0 mi WNW 6.9 mph - N/A   Clear
11:36 PM 14.0 °F 3.9 °F 10.4 °F 86% 30.22 in 10.0 mi West 6.9 mph - N/A   Clear